Time,TemperatureF,DewpointF,PressureIn,WindDirection,WindDirectionDegrees,WindSpeedMPH,WindSpeedGustMPH,Humidity,HourlyPrecipIn,Conditions,Clouds,dailyrainin,SoftwareType,DateUTC
2013-03-01 00:02:00,31.0,29.0,29.76,NNE,14,10.0,16.0,94,0.00,,,0.23,,2013-03-01 05:02:00,
2013-03-01 00:11:00,31.0,29.0,29.76,NNE,14,10.0,16.0,94,0.00,,,0.23,,2013-03-01 05:11:00,
2013-03-01 00:22:00,31.0,29.0,29.76,North,349,6.0,13.0,94,0.00,,,0.23,,2013-03-01 05:22:00,
2013-03-01 00:33:00,31.0,29.0,29.76,NNE,18,10.0,14.0,93,0.00,,,0.23,,2013-03-01 05:33:00,
2013-03-01 00:42:00,31.0,29.0,29.76,NNE,18,10.0,14.0,93,0.00,,,0.23,,2013-03-01 05:42:00,
2013-03-01 00:53:00,31.0,29.0,29.77,NNW,333,7.0,13.0,92,0.00,,,0.23,,2013-03-01 05:53:00,
2013-03-01 01:02:00,31.0,29.0,29.77,North,354,10.0,13.0,92,0.00,,,0.23,,2013-03-01 06:02:00,
2013-03-01 01:12:00,31.0,29.0,29.77,North,354,10.0,13.0,92,0.00,,,0.23,,2013-03-01 06:12:00,
2013-03-01 01:22:00,31.0,29.0,29.78,North,355,9.0,13.0,91,0.00,,,0.23,,2013-03-01 06:22:00,
2013-03-01 01:32:00,31.0,29.0,29.78,NNW,341,6.0,11.0,92,0.00,,,0.23,,2013-03-01 06:32:00,
2013-03-01 01:42:00,31.0,29.0,29.78,NNW,341,6.0,11.0,92,0.00,,,0.23,,2013-03-01 06:42:00,
2013-03-01 01:53:00,31.0,29.0,29.78,NNE,27,10.0,14.0,92,0.00,,,0.23,,2013-03-01 06:53:00,
2013-03-01 02:02:00,30.0,28.0,29.79,North,352,7.0,11.0,91,0.00,,,0.23,,2013-03-01 07:02:00,
2013-03-01 02:12:00,30.0,28.0,29.79,North,352,7.0,11.0,91,0.00,,,0.23,,2013-03-01 07:12:00,
2013-03-01 02:22:00,30.0,28.0,29.79,NNW,345,7.0,10.0,91,0.00,,,0.23,,2013-03-01 07:22:00,
2013-03-01 02:32:00,30.0,28.0,29.79,NW,321,7.0,14.0,91,0.00,,,0.23,,2013-03-01 07:32:00,
2013-03-01 02:42:00,30.0,28.0,29.79,NW,321,7.0,14.0,91,0.00,,,0.23,,2013-03-01 07:42:00,
2013-03-01 02:52:00,30.0,28.0,29.79,NNW,332,8.0,11.0,91,0.00,,,0.23,,2013-03-01 07:52:00,
2013-03-01 03:02:00,30.0,27.0,29.79,NNW,347,9.0,12.0,90,0.00,,,0.23,,2013-03-01 08:02:00,
2013-03-01 03:12:00,30.0,27.0,29.79,NNW,347,9.0,12.0,90,0.00,,,0.23,,2013-03-01 08:12:00,
2013-03-01 03:22:00,30.0,27.0,29.80,North,6,7.0,10.0,90,0.00,,,0.23,,2013-03-01 08:22:00,
2013-03-01 03:32:00,30.0,27.0,29.80,NW,323,8.0,12.0,90,0.00,,,0.23,,2013-03-01 08:32:00,
2013-03-01 03:43:00,30.0,27.0,29.80,NW,323,8.0,12.0,90,0.00,,,0.23,,2013-03-01 08:43:00,
2013-03-01 03:53:00,30.0,27.0,29.80,NNW,335,9.0,12.0,90,0.00,,,0.23,,2013-03-01 08:53:00,
2013-03-01 04:02:00,30.0,27.0,29.81,NNE,12,8.0,11.0,90,0.00,,,0.23,,2013-03-01 09:02:00,
2013-03-01 04:12:00,30.0,27.0,29.81,NNE,12,8.0,11.0,90,0.00,,,0.23,,2013-03-01 09:12:00,
2013-03-01 04:22:00,29.0,26.0,29.81,NNW,337,10.0,16.0,90,0.00,,,0.23,,2013-03-01 09:22:00,
2013-03-01 04:32:00,29.0,26.0,29.81,NW,316,7.0,14.0,90,0.00,,,0.23,,2013-03-01 09:32:00,
2013-03-01 04:42:00,29.0,26.0,29.81,NW,316,7.0,14.0,90,0.00,,,0.23,,2013-03-01 09:42:00,
2013-03-01 04:53:00,29.0,26.0,29.82,WNW,288,6.0,16.0,89,0.00,,,0.23,,2013-03-01 09:53:00,
2013-03-01 05:02:00,29.0,26.0,29.83,North,350,8.0,16.0,89,0.00,,,0.23,,2013-03-01 10:02:00,
2013-03-01 05:12:00,29.0,26.0,29.83,North,350,8.0,16.0,89,0.00,,,0.23,,2013-03-01 10:12:00,
2013-03-01 05:22:00,29.0,26.0,29.83,North,349,7.0,14.0,88,0.00,,,0.23,,2013-03-01 10:22:00,
2013-03-01 05:32:00,29.0,26.0,29.83,WNW,302,6.0,15.0,89,0.00,,,0.23,,2013-03-01 10:32:00,
2013-03-01 05:42:00,29.0,26.0,29.83,WNW,302,6.0,15.0,89,0.00,,,0.23,,2013-03-01 10:42:00,
2013-03-01 05:53:00,29.0,26.0,29.83,North,356,7.0,12.0,89,0.00,,,0.23,,2013-03-01 10:53:00,
2013-03-01 06:02:00,29.0,26.0,29.83,NW,323,5.0,12.0,89,0.00,,,0.23,,2013-03-01 11:02:00,
2013-03-01 06:11:00,29.0,26.0,29.83,NW,323,5.0,12.0,89,0.00,,,0.23,,2013-03-01 11:11:00,
2013-03-01 06:23:00,29.0,26.0,29.84,NW,321,6.0,9.0,89,0.00,,,0.23,,2013-03-01 11:23:00,
2013-03-01 06:32:00,29.0,26.0,29.84,North,9,9.0,13.0,89,0.00,,,0.23,,2013-03-01 11:32:00,
2013-03-01 06:42:00,29.0,26.0,29.84,North,9,9.0,13.0,89,0.00,,,0.23,,2013-03-01 11:42:00,
2013-03-01 06:53:00,29.0,26.0,29.84,NNW,327,6.0,13.0,89,0.00,,,0.23,,2013-03-01 11:53:00,
2013-03-01 07:02:00,29.0,26.0,29.84,North,352,5.0,12.0,89,0.00,,,0.23,,2013-03-01 12:02:00,
2013-03-01 07:11:00,29.0,26.0,29.84,North,352,5.0,12.0,89,0.00,,,0.23,,2013-03-01 12:11:00,
2013-03-01 07:22:00,29.0,26.0,29.85,NNW,339,12.0,15.0,88,0.00,,,0.23,,2013-03-01 12:22:00,
2013-03-01 07:32:00,29.0,26.0,29.85,NNW,335,8.0,16.0,88,0.00,,,0.23,,2013-03-01 12:32:00,
2013-03-01 07:42:00,29.0,26.0,29.85,NNW,335,8.0,16.0,88,0.00,,,0.23,,2013-03-01 12:42:00,
2013-03-01 07:52:00,29.0,26.0,29.86,NNW,342,7.0,13.0,88,0.00,,,0.23,,2013-03-01 12:52:00,
2013-03-01 08:01:00,29.0,26.0,29.87,North,350,10.0,17.0,87,0.00,,,0.23,,2013-03-01 13:01:00,
2013-03-01 08:11:00,29.0,26.0,29.87,North,350,10.0,17.0,87,0.00,,,0.23,,2013-03-01 13:11:00,
2013-03-01 08:22:00,29.0,26.0,29.87,North,356,9.0,16.0,87,0.00,,,0.23,,2013-03-01 13:22:00,
2013-03-01 08:32:00,29.0,26.0,29.87,North,352,10.0,15.0,87,0.00,,,0.23,,2013-03-01 13:32:00,
2013-03-01 08:42:00,29.0,26.0,29.87,North,352,10.0,15.0,87,0.00,,,0.23,,2013-03-01 13:42:00,
2013-03-01 08:52:00,29.0,26.0,29.87,North,10,9.0,13.0,87,0.00,,,0.23,,2013-03-01 13:52:00,
2013-03-01 09:01:00,28.0,25.0,29.88,NNW,347,9.0,15.0,87,0.00,,,0.23,,2013-03-01 14:01:00,
2013-03-01 09:11:00,28.0,25.0,29.88,NNW,347,9.0,15.0,87,0.00,,,0.23,,2013-03-01 14:11:00,
2013-03-01 09:22:00,28.0,24.0,29.88,NNW,348,7.0,17.0,86,0.00,,,0.23,,2013-03-01 14:22:00,
2013-03-01 09:32:00,28.0,24.0,29.88,NNW,342,10.0,14.0,85,0.00,,,0.23,,2013-03-01 14:32:00,
2013-03-01 09:42:00,28.0,24.0,29.88,NNW,342,10.0,14.0,85,0.00,,,0.23,,2013-03-01 14:42:00,
2013-03-01 09:52:00,28.0,24.0,29.89,NNW,348,7.0,14.0,86,0.00,,,0.23,,2013-03-01 14:52:00,
2013-03-01 10:02:00,28.0,24.0,29.89,NW,315,11.0,16.0,85,0.00,,,0.23,,2013-03-01 15:02:00,
2013-03-01 10:11:00,27.0,23.0,29.89,WNW,300,9.0,19.0,85,0.00,,,0.22,,2013-03-01 15:11:00,
2013-03-01 10:21:00,27.0,23.0,29.89,WNW,300,9.0,19.0,85,0.00,,,0.22,,2013-03-01 15:21:00,
2013-03-01 10:32:00,27.0,23.0,29.90,NNW,330,9.0,17.0,86,0.00,,,0.22,,2013-03-01 15:32:00,
2013-03-01 10:42:00,27.0,23.0,29.90,NNW,330,9.0,17.0,86,0.00,,,0.22,,2013-03-01 15:42:00,
2013-03-01 10:52:00,27.0,23.0,29.90,North,5,10.0,17.0,85,0.00,,,0.22,,2013-03-01 15:52:00,
2013-03-01 11:01:00,27.0,23.0,29.90,WNW,298,6.0,15.0,86,0.00,,,0.22,,2013-03-01 16:01:00,
2013-03-01 11:11:00,27.0,23.0,29.90,WNW,298,6.0,15.0,86,0.00,,,0.22,,2013-03-01 16:11:00,
2013-03-01 11:22:00,27.0,23.0,29.90,North,10,10.0,16.0,83,0.00,,,0.18,,2013-03-01 16:22:00,
2013-03-01 11:32:00,27.0,23.0,29.91,NNW,347,7.0,14.0,84,0.00,,,0.18,,2013-03-01 16:32:00,
2013-03-01 11:42:00,27.0,23.0,29.91,NNW,347,7.0,14.0,84,0.00,,,0.18,,2013-03-01 16:42:00,
2013-03-01 11:52:00,27.0,23.0,29.91,NNW,347,7.0,14.0,84,0.00,,,0.18,,2013-03-01 16:52:00,
2013-03-01 12:01:00,27.0,23.0,29.91,NNW,347,7.0,14.0,84,0.00,,,0.18,,2013-03-01 17:01:00,
2013-03-01 12:11:00,27.0,23.0,29.91,NNW,347,7.0,14.0,84,0.00,,,0.18,,2013-03-01 17:11:00,